[[{"header":{"parameterUnit":"m.s-1","parameterCategory":1,"la1":30.2991,"la2":30.254,"lo1":-89.0895,"lo2":-89.0444,"dy":0.0017,"dx":0.0017,"nx":28,"ny":28,"refTime":"2024-07-14T21:00:00:Z","depth":0,"parameterNumber":2,"parameterNumberName":"U-component_of_WINDS"},"data":[0,0,0,0,0,0,0,0,0,0,0,0,0,0,0,0,0,0,0,0,0,0,0,0,0,0,0,0,0,0,0,0,0,0,0,0,0,0,0,0,0,0,0,0,0,0,0,0,0,0,0,0,0,0,0,0,0,0,0.8482,0.8483,0,0.8607,0.8608,0.861,0.8626,0.8625,0.8624,0.8623,0.8754,0.8758,0.8763,0,0,0,0,0,0,0,0,0,0,0,0,0,0.8259,0.8263,0.8481,0.8483,0.8485,0.8606,0.8608,0.861,0.8626,0.8625,0.8624,0.8622,0.8752,0.8758,0.8763,0,0,0,0,0,0,0,0,0,0,0,0,0,0.8367,0.8264,0.8481,0.8507,0.8511,0.8606,0.8608,0.861,0.8627,0.8625,0.8623,0.8621,0.875,0.8757,0.8764,0.8842,0,0,0.8785,0.8788,0,0,0,0,0,0,0,0,0.8361,0.8375,0.8502,0.8506,0.851,0.8599,0.8578,0.8688,0.8627,0.8583,0.8623,0.8621,0.8704,0.8714,0.8742,0.8848,0.8854,0.8786,0.879,0.8793,0.8795,0,0,0,0,0,0,0,0.8353,0.837,0.8531,0.8504,0.8509,0.8514,0.8527,0.8599,0.8652,0.8587,0.8588,0.8603,0.8706,0.8735,0.8745,0.8856,0.8785,0.8791,0.8796,0.8798,0.9032,0.9034,0,0,0,0,0,0,0.8341,0.8363,0.8527,0.8535,0.8429,0.8519,0.8534,0.8572,0.8651,0.8661,0.8604,0.8603,0.8724,0.8737,0.875,0.8846,0.8793,0.8799,0.8803,0.903,0.9033,0.9035,0,0,0,0,0,0,0.8336,0.8355,0.8522,0.845,0.8471,0.8525,0.8568,0.8576,0.8605,0.8664,0.8674,0.8624,0.8723,0.874,0.8819,0.8851,0.8802,0.8808,0.9028,0.9031,0.9034,0.9039,0,0,0,0,0,0,0.8329,0.8353,0.8383,0.845,0.8475,0.8588,0.857,0.8579,0.8617,0.8616,0.8686,0.8696,0.8723,0.8808,0.8826,0.8859,0.8814,0.9025,0.9029,0.9033,0.9036,0.9042,0.9047,0,0,0,0,0,0.8321,0.838,0.8384,0.8404,0.8513,0.859,0.8604,0.8634,0.8619,0.865,0.8688,0.8693,0.8845,0.8816,0.8836,0.8872,0.9023,0.9028,0.9032,0.9034,0.9041,0.9047,0,0,0,0,0,0,0.8317,0.839,0.8395,0.8477,0.8527,0.8593,0.8632,0.8641,0.8697,0.8694,0.873,0.8745,0.8822,0.8855,0.8822,0.8952,0.8933,0.8941,0.8927,0.8934,0.8939,0.893,0.882,0,0,0,0,0,0.8325,0.8381,0.8442,0.8509,0.8533,0.8578,0.8613,0.8631,0.8685,0.8706,0.875,0.8802,0.8862,0.89,0.8958,0.9041,0.9057,0.9076,0.9081,0.9085,0.9092,0.9139,0.9148,0.905,0.905,0.905,0,0,0.8343,0.839,0.8423,0.8509,0.855,0.8607,0.8596,0.8657,0.87,0.8716,0.8792,0.8826,0.8887,0.8968,0.9006,0.8998,0.9123,0.9091,0.9094,0.9099,0.9144,0.9153,0.9162,0.9053,0.9053,0.9052,0,0,0.8405,0.8447,0.8506,0.8547,0.8609,0.8638,0.8652,0.8717,0.8739,0.8817,0.8829,0.8881,0.8983,0.9025,0.906,0.9138,0.9145,0.9156,0.9183,0.9228,0.9235,0.9242,0.9269,0.9279,0.9163,0.9163,0.9163,0,0.842,0.8506,0.8536,0.8596,0.8634,0.865,0.8711,0.8749,0.8827,0.8852,0.8842,0.8969,0.9011,0.9102,0.9121,0.9149,0.9166,0.9148,0.9232,0.9239,0.9246,0.9272,0.9282,0.9164,0.9163,0.9163,0.9163,0,0.8521,0.8581,0.8622,0.8695,0.8737,0.8797,0.8837,0.8876,0.8891,0.8921,0.8999,0.905,0.9118,0.9142,0.9157,0.9235,0.9228,0.9224,0.9206,0.9255,0.9281,0.9291,0.9165,0.9164,0.9164,0.9164,0,0,0.8584,0.8672,0.8687,0.872,0.8789,0.8836,0.8897,0.8962,0.8995,0.9048,0.91,0.9185,0.9182,0.9221,0.9242,0.9281,0.9338,0.9273,0.9275,0.9283,0.9426,0.9428,0.9439,0.9344,0.9346,0.9347,0.9421,0,0.8653,0.8761,0.879,0.8882,0.8937,0.8953,0.9007,0.9055,0.9085,0.9137,0.9171,0.923,0.9222,0.9246,0.9285,0.9323,0.9367,0.9318,0.9392,0.9395,0.9376,0.9452,0.9454,0.9521,0.9431,0.9432,0.9434,0,0.8749,0.8802,0.8899,0.8961,0.8985,0.9032,0.9094,0.9143,0.9198,0.9218,0.9261,0.9278,0.9343,0.9321,0.941,0.9376,0.9408,0.9431,0.9435,0.9442,0.9417,0.9461,0.9543,0.9553,0.945,0.9448,0.9447,0,0.8783,0.888,0.8951,0.8979,0.9052,0.9085,0.9117,0.917,0.9208,0.9262,0.9287,0.9348,0.9382,0.943,0.9463,0.9444,0.9549,0.953,0.9567,0.9566,0.9588,0.9586,0.9676,0.961,0.961,0.961,0.961,0,0.8857,0.8916,0.8967,0.901,0.9077,0.9109,0.9174,0.9207,0.9254,0.9305,0.9323,0.937,0.9411,0.9464,0.949,0.956,0.9575,0.9593,0.9599,0.9591,0.9588,0.9612,0.9608,0.9612,0.9612,0.9611,0.9611,0,0.8907,0.8943,0.9021,0.9084,0.9101,0.9147,0.9201,0.9244,0.9275,0.9338,0.9355,0.9404,0.9466,0.9504,0.9584,0.9602,0.9679,0.9683,0.966,0.9662,0.9697,0.9693,0.9804,0.982,0.9744,0.9745,0.9745,0,0.8951,0.8996,0.9064,0.9098,0.9131,0.9186,0.9224,0.9258,0.9297,0.9363,0.9398,0.9461,0.9514,0.9614,0.9657,0.9718,0.9724,0.9759,0.9733,0.9723,0.9724,0.972,0.9725,0.9763,0.9763,0.9764,0.9764,0,0.9026,0.9041,0.9095,0.9155,0.9199,0.9248,0.9297,0.9325,0.9367,0.941,0.9473,0.9514,0.9595,0.9658,0.9723,0.9757,0.9768,0.9772,0.9784,0.9775,0.9759,0.9768,0.9671,0.9769,0.9769,0.9768,0.9768,0.9768,0.9074,0.9114,0.9168,0.9227,0.9267,0.9312,0.9355,0.9391,0.9445,0.9512,0.953,0.9596,0.965,0.9738,0.9773,0.9826,0.9821,0.9838,0.9842,0.9846,0.9846,0.9751,0.9838,0.9838,0.9838,0.9838,0.9838,0,0.9148,0.9184,0.9237,0.9305,0.9351,0.9357,0.9411,0.945,0.9508,0.9557,0.9608,0.9681,0.9742,0.979,0.9852,0.9886,0.9892,0.9901,0.9899,0.9906,0.9848,0.9831,0.9895,0.9895,0.9895,0.9895,0.9895,0.9894,0.9193,0.9262,0.9284,0.9373,0.9408,0.9473,0.9504,0.9545,0.9585,0.9665,0.9716,0.9746,0.9794,0.986,0.9917,0.9929,0.9951,0.9959,0.9972,0.9917,0.991,0.9905,0.9889,0.9964,0.9964,1.0026,1.0027,1.0027]},{"header":{"parameterUnit":"m.s-1","parameterCategory":1,"la1":30.2991,"la2":30.254,"lo1":-89.0895,"lo2":-89.0444,"dy":0.0017,"dx":0.0017,"nx":28,"ny":28,"refTime":"2024-07-14T21:00:00:Z","depth":0,"parameterNumber":3,"parameterNumberName":"V-component_of_WINDS"},"data":[0,0,0,0,0,0,0,0,0,0,0,0,0,0,0,0,0,0,0,0,0,0,0,0,0,0,0,0,0,0,0,0,0,0,0,0,0,0,0,0,0,0,0,0,0,0,0,0,0,0,0,0,0,0,0,0,0,0,5.1686,5.1686,0,5.1646,5.1646,5.1645,5.1547,5.1545,5.1543,5.1541,5.1501,5.1502,5.1503,0,0,0,0,0,0,0,0,0,0,0,0,0,5.1678,5.1678,5.1686,5.1686,5.1685,5.1646,5.1646,5.1645,5.1548,5.1545,5.1543,5.154,5.1501,5.1502,5.1503,0,0,0,0,0,0,0,0,0,0,0,0,0,5.1664,5.1679,5.1686,5.1632,5.1626,5.1646,5.1646,5.1645,5.1548,5.1545,5.1542,5.1539,5.1501,5.1502,5.1503,5.1573,0,0,5.1507,5.1508,0,0,0,0,0,0,0,0,5.1665,5.1665,5.164,5.1635,5.163,5.1598,5.1628,5.1621,5.1549,5.1578,5.1541,5.1537,5.1536,5.1534,5.1534,5.1572,5.157,5.1507,5.1508,5.1509,5.1509,0,0,0,0,0,0,0,5.1666,5.1666,5.167,5.164,5.1633,5.1609,5.1604,5.1626,5.1575,5.1575,5.1568,5.1564,5.1533,5.1533,5.1532,5.1569,5.1507,5.1509,5.1509,5.151,5.166,5.1663,0,0,0,0,0,0,5.1675,5.1667,5.1671,5.1669,5.164,5.1612,5.1606,5.1612,5.1574,5.1566,5.1567,5.156,5.1532,5.1531,5.153,5.1608,5.1509,5.151,5.1511,5.1657,5.1661,5.1664,0,0,0,0,0,0,5.1675,5.1676,5.1673,5.1666,5.1664,5.1615,5.1623,5.1612,5.1612,5.1568,5.1559,5.1577,5.153,5.1529,5.1563,5.1605,5.1511,5.1512,5.1653,5.1658,5.1663,5.1765,0,0,0,0,0,0,5.1675,5.1677,5.1703,5.1667,5.1665,5.1706,5.1625,5.1614,5.1615,5.1605,5.1575,5.1567,5.1527,5.1561,5.1564,5.1605,5.1513,5.1649,5.1655,5.1661,5.1757,5.1773,5.1786,0,0,0,0,0,5.1675,5.1734,5.1705,5.1706,5.1696,5.1709,5.1707,5.166,5.1619,5.1644,5.1616,5.1568,5.1601,5.1566,5.1568,5.161,5.1646,5.1654,5.1661,5.1751,5.177,5.1785,0,0,0,0,0,0,5.1776,5.1728,5.1695,5.1744,5.1732,5.1693,5.1723,5.1682,5.1681,5.1672,5.1614,5.1608,5.165,5.1634,5.1596,5.1675,5.1615,5.1624,5.1684,5.1701,5.1715,5.1717,5.1514,0,0,0,0,0,5.1804,5.1819,5.1776,5.1824,5.1819,5.1773,5.1776,5.1741,5.1726,5.172,5.1694,5.1681,5.1688,5.1694,5.1698,5.1755,5.1746,5.1785,5.18,5.1811,5.1818,5.1845,5.1861,5.1688,5.1688,5.1688,0,0,5.1862,5.1838,5.1851,5.1843,5.1829,5.1845,5.1769,5.1789,5.18,5.1723,5.1753,5.1734,5.1715,5.1761,5.178,5.1749,5.1864,5.182,5.183,5.1831,5.1854,5.1871,5.1885,5.1693,5.1692,5.1691,0,0,5.1975,5.1959,5.1995,5.1983,5.1962,5.1931,5.194,5.1907,5.1891,5.192,5.1862,5.1875,5.1889,5.1877,5.1873,5.1982,5.1937,5.1985,5.2057,5.2084,5.2098,5.211,5.2146,5.2161,5.1992,5.1993,5.1993,0,5.205,5.2071,5.202,5.2043,5.2041,5.1972,5.2008,5.1998,5.1981,5.1981,5.1946,5.1961,5.1944,5.1985,5.2011,5.2011,5.2019,5.1987,5.21,5.2112,5.2122,5.2156,5.217,5.1998,5.1998,5.1997,5.1997,0,5.2162,5.2178,5.221,5.2193,5.2195,5.2225,5.2178,5.2186,5.2151,5.2124,5.2154,5.2131,5.2128,5.2136,5.2102,5.2172,5.2153,5.2111,5.2049,5.2145,5.2176,5.2189,5.2007,5.2005,5.2003,5.2002,0,0,5.2337,5.2291,5.2304,5.2294,5.2266,5.2277,5.2304,5.2301,5.2308,5.2299,5.2318,5.2331,5.2291,5.2287,5.2252,5.2276,5.2361,5.223,5.2229,5.2253,5.2433,5.2464,5.248,5.2331,5.2334,5.2336,5.2434,0,5.2441,5.2483,5.2438,5.2489,5.2502,5.2436,5.2459,5.2444,5.242,5.2427,5.2399,5.2409,5.2357,5.2353,5.2374,5.2346,5.2396,5.2338,5.2348,5.2349,5.2353,5.2496,5.2529,5.2623,5.2446,5.2448,5.245,0,5.2568,5.2563,5.2616,5.2583,5.2586,5.2608,5.26,5.2609,5.259,5.257,5.2565,5.2522,5.2546,5.2488,5.2518,5.248,5.2482,5.2468,5.2471,5.2468,5.2404,5.2496,5.2652,5.2666,5.2469,5.2467,5.2466,0,5.2688,5.2694,5.2725,5.272,5.2683,5.2699,5.2685,5.2663,5.2664,5.2658,5.2658,5.2655,5.2654,5.2652,5.261,5.2572,5.2645,5.2584,5.2628,5.2629,5.2645,5.2644,5.2802,5.265,5.2649,5.2649,5.2649,0,5.2807,5.2842,5.2778,5.2798,5.2834,5.2781,5.2818,5.2797,5.2779,5.2792,5.2737,5.2751,5.2694,5.2702,5.2669,5.2698,5.2699,5.2682,5.2673,5.2686,5.2688,5.2685,5.2677,5.2653,5.2652,5.2651,5.2651,0,5.2946,5.2905,5.2935,5.2897,5.2889,5.2917,5.2884,5.29,5.2872,5.289,5.2891,5.2846,5.2853,5.281,5.281,5.2787,5.2831,5.2812,5.2837,5.283,5.2876,5.2872,5.3036,5.3054,5.2893,5.2894,5.2896,0,5.3024,5.3048,5.3013,5.3018,5.3006,5.3015,5.3015,5.2965,5.2967,5.2948,5.2966,5.2968,5.2966,5.2979,5.2947,5.2945,5.2924,5.2981,5.2923,5.2935,5.2922,5.292,5.2922,5.2993,5.2995,5.2997,5.2998,0,5.3167,5.3145,5.3147,5.3142,5.3143,5.3137,5.3127,5.3134,5.308,5.3085,5.309,5.3089,5.3088,5.309,5.3082,5.3066,5.3023,5.3017,5.3026,5.3039,5.3052,5.3044,5.2868,5.3013,5.3011,5.301,5.3009,5.3009,5.3276,5.3294,5.3271,5.3275,5.3262,5.3254,5.3266,5.3239,5.3243,5.3237,5.3207,5.3218,5.3198,5.3182,5.3171,5.3178,5.3151,5.3166,5.3169,5.3173,5.318,5.3053,5.3177,5.3177,5.3176,5.3176,5.3176,0,5.3413,5.3395,5.34,5.3387,5.339,5.3349,5.3335,5.334,5.335,5.3335,5.3334,5.334,5.3342,5.3309,5.3306,5.3318,5.3298,5.3319,5.3317,5.3314,5.3206,5.3197,5.3335,5.3335,5.3335,5.3335,5.3335,5.3335,5.3485,5.3513,5.3488,5.3509,5.3491,5.35,5.3496,5.3488,5.3475,5.3484,5.3484,5.3463,5.3441,5.3436,5.3435,5.3425,5.3426,5.3453,5.3437,5.3337,5.3321,5.3307,5.3297,5.3454,5.3455,5.3543,5.3544,5.3545]}]]